EW8281 Weather Reports


Display with metric or nautical units.
time (UTC)temp
F
wind
direction
speed
MPH
gust
MPH
rain 1hr
in
rain 24hr
in
rain mn
in
humidity
%
barometer
mb
20260906103037 71 90 0.0 0.0 0.00 0.00 0.00 94 1010.8
20260906101530 71 90 0.0 1.0 0.00 0.00 0.00 95 1010.4
20260906100033 71 80 0.0 5.0 0.00 0.00 0.00 95 1010.0
20260906094552 71 63 0.0 4.0 0.00 0.01 0.00 95 1010.0
20260906093041 71 30 0.0 2.0 0.00 0.01 0.00 95 1009.9
20260906091529 70 360 0.0 2.0 0.00 0.01 0.00 95 1009.9
20260906090031 70 360 0.0 0.0 0.00 0.01 0.00 95 1009.7
20260906084526 69 360 0.0 0.0 0.00 0.01 0.00 94 1009.4
20260906083041 70 360 0.0 0.0 0.00 0.01 0.00 94 1009.4
20260906081532 70 360 0.0 0.0 0.00 0.01 0.00 95 1009.1
20260906080032 70 360 0.0 2.0 0.00 0.01 0.00 94 1009.2
20260906074528 69 355 0.0 4.0 0.00 0.01 0.00 94 1009.2
20260906073026 69 319 0.0 3.0 0.00 0.01 0.00 94 1009.1
20260906071523 69 312 0.0 0.0 0.00 0.01 0.00 93 1009.3
20260906070019 69 312 0.0 0.0 0.00 0.01 0.00 93 1009.4
20260906064518 70 312 0.0 0.0 0.00 0.04 0.00 93 1009.6
20260906063019 70 75 0.0 0.0 0.00 0.04 0.00 93 1009.6
20260906061516 70 75 0.0 0.0 0.00 0.04 0.00 92 1009.6
20260906060015 70 75 0.0 0.0 0.00 0.04 0.00 92 1009.4
20260906054513 71 75 0.0 0.0 0.00 0.04 0.00 92 1009.6
20260906053012 71 75 0.0 0.0 0.00 0.04 0.00 91 1009.6
20260906051509 71 75 0.0 0.0 0.00 0.04 0.00 91 1009.6
20260906050008 71 75 0.0 0.0 0.00 0.04 0.00 91 1009.8
20260906044508 72 75 0.0 0.0 0.00 0.04 0.00 91 1009.7
20260906043005 72 75 0.0 0.0 0.00 0.04 0.00 91 1009.9
20260906041502 72 75 0.0 0.0 0.00 0.04 0.00 90 1010.0
20260906040105 73 75 0.0 0.0 0.00 0.04 0.00 90 1010.0
20260906034603 73 75 0.0 4.0 0.00 0.04 0.04 90 1010.1
20260906033058 73 142 1.0 2.0 0.00 0.04 0.04 90 1010.0
20260906031557 73 292 0.0 2.0 0.00 0.04 0.04 90 1009.9
20260906024600 73 292 0.0 1.0 0.00 0.04 0.04 88 1009.8
20260906023056 73 292 0.0 0.0 0.00 0.04 0.04 89 1009.7
20260906021555 73 292 0.0 0.0 0.00 0.04 0.04 87 1009.6
20260906020055 74 292 0.0 0.0 0.00 0.04 0.04 87 1009.5
20260906014633 74 292 0.0 0.0 0.00 0.04 0.04 86 1009.6
20260906013100 74 292 0.0 0.0 0.00 0.04 0.04 86 1009.4
20260906011602 74 292 0.0 0.0 0.00 0.04 0.04 85 1009.2
20260906010054 75 292 0.0 1.0 0.00 0.04 0.04 83 1009.1
20260906004603 75 292 0.0 0.0 0.00 0.04 0.04 82 1009.0
20260906003103 76 292 0.0 0.0 0.00 0.04 0.04 80 1009.0
20260906001551 76 292 0.0 0.0 0.00 0.04 0.04 77 1008.8
20260906000051 77 292 0.0 0.0 0.00 0.04 0.04 75 1008.7
20260905234554 78 292 0.0 0.0 0.00 0.04 0.04 75 1008.3
20260905233050 79 300 0.0 0.0 0.00 0.04 0.04 74 1008.5
20260905231549 80 238 0.0 1.0 0.00 0.04 0.04 73 1008.3
20260905230049 81 245 0.0 1.0 0.00 0.04 0.04 74 1008.2
20260905224549 81 245 0.0 2.0 0.00 0.04 0.04 72 1008.3
20260905223048 82 230 0.0 2.0 0.00 0.04 0.04 71 1008.4
20260905221607 82 225 0.0 5.0 0.00 0.04 0.04 70 1008.5
20260905220047 83 235 0.0 2.0 0.00 0.04 0.04 70 1008.6
20260905214546 84 186 3.0 9.0 0.00 0.04 0.04 66 1008.7
20260905213058 85 192 0.0 0.0 0.00 0.04 0.04 68 1008.7
20260905211547 85 192 0.0 1.0 0.00 0.04 0.04 66 1008.7
20260905210052 86 207 3.0 5.0 0.00 0.04 0.04 61 1008.8
20260905204548 85 329 1.0 5.0 0.00 0.04 0.04 64 1008.4
20260905203046 84 293 3.0 6.0 0.00 0.04 0.04 68 1008.3
20260905201558 82 355 0.0 5.0 0.00 0.04 0.04 75 1008.5
20260905200046 81 211 1.0 5.0 0.00 0.04 0.04 77 1008.6
20260905194543 80 237 2.0 7.0 0.00 0.04 0.04 79 1008.7
20260905193049 80 227 0.0 6.0 0.00 0.04 0.04 80 1009.2
20260905191541 79 244 0.0 2.0 0.00 0.04 0.04 78 1008.2
20260905190040 80 82 3.0 5.0 0.00 0.04 0.04 77 1007.9
20260905184543 80 334 3.0 9.0 0.00 0.04 0.04 76 1008.5
20260905183036 83 327 1.0 3.0 0.00 0.04 0.04 70 1008.9
20260905181537 86 332 2.0 19.0 0.00 0.04 0.04 62 1009.0
20260905180038 92 350 2.0 5.0 0.00 0.04 0.04 57 1008.7
20260905174534 93 290 0.0 8.0 0.00 0.04 0.04 57 1008.7
20260905173031 94 288 4.0 8.0 0.00 0.04 0.04 55 1009.1
20260905171528 93 9 2.0 8.0 0.00 0.04 0.04 57 1009.6
20260905170026 92 10 3.0 8.0 0.00 0.04 0.04 58 1009.9
20260905164525 92 348 1.0 7.0 0.00 0.04 0.04 58 1010.2
20260905163026 92 217 1.0 7.0 0.00 0.04 0.04 57 1010.2
20260905161523 92 328 2.0 7.0 0.00 0.04 0.04 60 1010.3
20260905160020 92 233 0.0 5.0 0.00 0.04 0.04 59 1010.5
20260905154518 91 5 5.0 7.0 0.00 0.04 0.04 60 1010.5
20260905153015 90 355 4.0 7.0 0.00 0.04 0.04 63 1010.7
20260905151511 90 229 0.0 5.0 0.00 0.04 0.04 66 1010.7
20260905150007 88 198 0.0 4.0 0.00 0.04 0.04 68 1010.8
20260905144505 87 207 2.0 5.0 0.00 0.04 0.04 68 1010.9
20260905143003 87 18 1.0 5.0 0.00 0.04 0.04 69 1010.9
20260905141600 85 355 0.0 2.0 0.00 0.04 0.04 75 1010.7
20260905140053 84 269 0.0 6.0 0.00 0.04 0.04 77 1010.7
20260905134552 83 316 0.0 0.0 0.00 0.04 0.04 81 1010.8
20260905133045 81 275 0.0 0.0 0.00 0.04 0.04 85 1010.8
20260905131541 78 273 0.0 0.0 0.00 0.04 0.04 90 1010.6
20260905130036 77 206 0.0 0.0 0.00 0.04 0.04 92 1010.8
20260905124534 75 205 0.0 1.0 0.00 0.04 0.04 94 1010.9
20260905123030 74 328 0.0 0.0 0.00 0.04 0.04 95 1010.9
20260905121527 73 328 0.0 0.0 0.00 0.04 0.04 95 1010.9
20260905120028 72 328 0.0 0.0 0.00 0.04 0.04 95 1010.8
20260905114526 70 329 0.0 0.0 0.00 0.04 0.04 95 1010.7
20260905113028 70 329 0.0 0.0 0.00 0.04 0.04 95 1010.4
20260905111525 70 329 0.0 0.0 0.00 0.04 0.04 94 1010.4
20260905110023 70 329 0.0 0.0 0.00 0.04 0.04 94 1010.3
20260905104522 70 329 0.0 0.0 0.00 0.04 0.04 94 1010.1